Powrót do katalogu

FENGYUN 1C DEB

AktywnySSO
NORAD 30741·DEBRIS·🇨🇳 China

Wystrzelony May 10, 1999 z Taiyuan Satellite Launch Center

Loading…

Następne Przeloty (najbliższe 24 godziny)

TLE

ŚwieżeSource: Space-Track

Epoka: Sep 14, 2026, 12:16 UTC

1 30741U 99025ATB 26257.51134867  .00000118  00000-0  85586-4 0  9993
2 30741  98.6787 263.5115 0007171  60.2445  93.0435 14.13376964  7007

Śledź FENGYUN 1C DEB w czasie rzeczywistym z AllMySat

Download on the App Store